When you browse on this site, cookies collect data to enhance your experience and personalize the content and advertising you see.
Visit our Privacy Policy to learn more. By continuing to use the site, you agree to this use of cookies and data.
  • In Hungary
  • List of Countries
  • For 7 days
  • Water Temperature
  • Weather Map
  • News
  • Weather Widgets
  • user-avatar
    Login

    Hourly Weather Vashina Gora

    Today, 24 October, Thursday

    Time Temperature Precipitation Wind Pressure Humidity
    00:00 +9°C° 0 mm 2 mps 754 mmHg 87%
    01:00 +9°C° 0 mm 3 mps 754 mmHg 86%
    02:00 +9°C° 0 mm 3 mps 754 mmHg 86%
    03:00 +8°C° 0 mm 3 mps 754 mmHg 88%
    04:00 +7°C° 0 mm 2 mps 754 mmHg 91%
    05:00 +7°C° 0 mm 2 mps 753 mmHg 93%
    06:00 +7°C° 0 mm 2 mps 754 mmHg 92%
    07:00 +5°C° 0 mm 3 mps 754 mmHg 92%
    08:00 +5°C° 0 mm 3 mps 754 mmHg 92%
    09:00 +7°C° 0 mm 3 mps 754 mmHg 86%
    10:00 +8°C° 0 mm 3 mps 755 mmHg 81%
    11:00 +9°C° 0 mm 2 mps 755 mmHg 75%
    12:00 +10°C° 0 mm 2 mps 755 mmHg 74%
    13:00 +10°C° 0 mm 2 mps 755 mmHg 72%
    14:00 +10°C° 0 mm 2 mps 755 mmHg 71%
    15:00 +9°C° 0 mm 2 mps 754 mmHg 76%
    16:00 +8°C° 0 mm 2 mps 754 mmHg 82%
    17:00 +7°C° 0 mm 2 mps 754 mmHg 87%
    18:00 +6°C° 0 mm 2 mps 754 mmHg 90%
    19:00 +6°C° 0 mm 2 mps 754 mmHg 92%
    20:00 +6°C° 0 mm 2 mps 755 mmHg 94%
    21:00 +6°C° 0 mm 2 mps 754 mmHg 94%
    22:00 +6°C° 0 mm 2 mps 754 mmHg 95%
    23:00 +5°C° 0 mm 2 mps 754 mmHg 95%

    Tomorrow, 25 October, Friday

    Time Temperature Precipitation Wind Pressure Humidity
    00:00 +5°C° 0 mm 2 mps 754 mmHg 95%
    01:00 +4°C° 0 mm 3 mps 754 mmHg 94%
    02:00 +4°C° 0 mm 3 mps 754 mmHg 94%
    03:00 +4°C° 0 mm 3 mps 753 mmHg 94%
    04:00 +5°C° 0 mm 3 mps 753 mmHg 94%
    05:00 +5°C° 0 mm 3 mps 752 mmHg 94%
    06:00 +5°C° 0 mm 3 mps 752 mmHg 93%
    07:00 +5°C° 0 mm 4 mps 751 mmHg 92%
    08:00 +5°C° 0 mm 4 mps 751 mmHg 90%
    09:00 +7°C° 0 mm 4 mps 751 mmHg 86%
    10:00 +8°C° 0 mm 5 mps 750 mmHg 82%
    11:00 +10°C° 0 mm 5 mps 750 mmHg 78%
    12:00 +12°C° 0 mm 5 mps 749 mmHg 77%
    13:00 +13°C° 0 mm 5 mps 748 mmHg 76%
    14:00 +14°C° 0 mm 6 mps 748 mmHg 75%
    15:00 +13°C° 0 mm 5 mps 747 mmHg 79%
    16:00 +13°C° 0 mm 5 mps 747 mmHg 83%
    17:00 +12°C° 0 mm 5 mps 747 mmHg 87%
    18:00 +12°C° 0 mm 5 mps 747 mmHg 86%
    19:00 +12°C° 0 mm 5 mps 747 mmHg 86%
    20:00 +13°C° 0 mm 5 mps 747 mmHg 85%
    21:00 +13°C° 0.1 mm 5 mps 748 mmHg 83%
    22:00 +12°C° 0.1 mm 5 mps 748 mmHg 81%
    23:00 +12°C° 0.1 mm 5 mps 748 mmHg 79%

    Day after tomorrow, 26 October, Saturday

    Time Temperature Precipitation Wind Pressure Humidity
    00:00 +10°C° 0 mm 5 mps 748 mmHg 81%
    01:00 +10°C° 0 mm 5 mps 749 mmHg 83%
    02:00 +9°C° 0 mm 5 mps 749 mmHg 85%
    03:00 +9°C° 0 mm 5 mps 749 mmHg 84%
    04:00 +9°C° 0 mm 5 mps 749 mmHg 83%
    05:00 +9°C° 0 mm 5 mps 749 mmHg 83%
    06:00 +8°C° 0 mm 5 mps 749 mmHg 82%
    07:00 +8°C° 0 mm 5 mps 749 mmHg 81%
    08:00 +8°C° 0 mm 5 mps 749 mmHg 79%
    09:00 +8°C° 0 mm 5 mps 749 mmHg 76%
    10:00 +9°C° 0 mm 5 mps 749 mmHg 73%
    11:00 +9°C° 0 mm 6 mps 749 mmHg 70%
    12:00 +10°C° 0 mm 5 mps 749 mmHg 71%
    13:00 +10°C° 0 mm 5 mps 748 mmHg 73%
    14:00 +10°C° 0 mm 5 mps 747 mmHg 75%
    15:00 +10°C° 0.2 mm 6 mps 746 mmHg 75%
    16:00 +10°C° 0.2 mm 7 mps 745 mmHg 75%
    17:00 +10°C° 0.2 mm 7 mps 744 mmHg 75%
    18:00 +10°C° 0.2 mm 7 mps 744 mmHg 77%
    19:00 +11°C° 0.2 mm 7 mps 743 mmHg 80%
    20:00 +11°C° 0.2 mm 7 mps 743 mmHg 82%
    21:00 +11°C° 0.4 mm 7 mps 743 mmHg 84%
    22:00 +11°C° 0.4 mm 6 mps 743 mmHg 86%
    23:00 +12°C° 0.4 mm 5 mps 744 mmHg 87%

    , 27 October, Sunday

    Time Temperature Precipitation Wind Pressure Humidity
    00:00 +12°C° 0.8 mm 5 mps 744 mmHg 88%
    01:00 +12°C° 0.8 mm 4 mps 744 mmHg 89%
    02:00 +12°C° 0.8 mm 4 mps 744 mmHg 90%
    03:00 +11°C° 0.7 mm 3 mps 744 mmHg 91%
    04:00 +11°C° 0.7 mm 3 mps 744 mmHg 92%
    05:00 +12°C° 0.7 mm 2 mps 744 mmHg 93%
    06:00 +11°C° 0.5 mm 3 mps 744 mmHg 91%
    07:00 +11°C° 0.5 mm 3 mps 743 mmHg 90%
    08:00 +11°C° 0.5 mm 4 mps 743 mmHg 89%
    09:00 +10°C° 0.1 mm 5 mps 742 mmHg 88%
    10:00 +12°C° 0.1 mm 5 mps 742 mmHg 86%
    11:00 +11°C° 0.1 mm 6 mps 742 mmHg 85%
    12:00 +11°C° 0 mm 6 mps 741 mmHg 84%
    13:00 +11°C° 0 mm 6 mps 740 mmHg 83%
    14:00 +11°C° 0 mm 6 mps 740 mmHg 82%
    15:00 +12°C° 0.1 mm 7 mps 740 mmHg 80%
    16:00 +12°C° 0.1 mm 7 mps 740 mmHg 78%
    17:00 +12°C° 0.1 mm 7 mps 739 mmHg 76%
    18:00 +11°C° 0 mm 7 mps 739 mmHg 75%
    19:00 +9°C° 0 mm 7 mps 740 mmHg 73%
    20:00 +8°C° 0 mm 6 mps 740 mmHg 72%
    21:00 +8°C° 0 mm 7 mps 740 mmHg 71%
    22:00 +6°C° 0 mm 7 mps 740 mmHg 70%
    23:00 +6°C° 0 mm 7 mps 740 mmHg 70%

    27 October, Sunday

    Time Temperature Precipitation Wind Pressure Humidity
    00:00 +12°C° 0.8 mm 5 mps 744 mmHg 88%
    01:00 +12°C° 0.8 mm 4 mps 744 mmHg 89%
    02:00 +12°C° 0.8 mm 4 mps 744 mmHg 90%
    03:00 +11°C° 0.7 mm 3 mps 744 mmHg 91%
    04:00 +11°C° 0.7 mm 3 mps 744 mmHg 92%
    05:00 +12°C° 0.7 mm 2 mps 744 mmHg 93%
    06:00 +11°C° 0.5 mm 3 mps 744 mmHg 91%
    07:00 +11°C° 0.5 mm 3 mps 743 mmHg 90%
    08:00 +11°C° 0.5 mm 4 mps 743 mmHg 89%
    09:00 +10°C° 0.1 mm 5 mps 742 mmHg 88%
    10:00 +12°C° 0.1 mm 5 mps 742 mmHg 86%
    11:00 +11°C° 0.1 mm 6 mps 742 mmHg 85%
    12:00 +11°C° 0 mm 6 mps 741 mmHg 84%
    13:00 +11°C° 0 mm 6 mps 740 mmHg 83%
    14:00 +11°C° 0 mm 6 mps 740 mmHg 82%
    15:00 +12°C° 0.1 mm 7 mps 740 mmHg 80%
    16:00 +12°C° 0.1 mm 7 mps 740 mmHg 78%
    17:00 +12°C° 0.1 mm 7 mps 739 mmHg 76%
    18:00 +11°C° 0 mm 7 mps 739 mmHg 75%
    19:00 +9°C° 0 mm 7 mps 740 mmHg 73%
    20:00 +8°C° 0 mm 6 mps 740 mmHg 72%
    21:00 +8°C° 0 mm 7 mps 740 mmHg 71%
    22:00 +6°C° 0 mm 7 mps 740 mmHg 70%
    23:00 +6°C° 0 mm 7 mps 740 mmHg 70%

    28 October, Monday

    Time Temperature Precipitation Wind Pressure Humidity
    00:00 +6°C° 0 mm 7 mps 740 mmHg 70%
    01:00 +6°C° 0 mm 7 mps 740 mmHg 70%
    02:00 +6°C° 0 mm 7 mps 741 mmHg 70%
    03:00 +5°C° 0 mm 6 mps 741 mmHg 72%
    04:00 +4°C° 0 mm 6 mps 741 mmHg 74%
    05:00 +3°C° 0 mm 5 mps 741 mmHg 76%
    06:00 +3°C° 0 mm 5 mps 742 mmHg 77%
    07:00 +3°C° 0 mm 5 mps 742 mmHg 78%
    08:00 +2°C° 0 mm 5 mps 742 mmHg 79%
    09:00 +2°C° 0 mm 5 mps 743 mmHg 75%
    10:00 +2°C° 0 mm 5 mps 744 mmHg 71%
    11:00 +2°C° 0 mm 5 mps 744 mmHg 68%
    12:00 +2°C° 0 mm 5 mps 745 mmHg 67%
    13:00 +2°C° 0 mm 5 mps 746 mmHg 67%
    14:00 +3°C° 0 mm 4 mps 746 mmHg 66%
    15:00 +3°C° 0 mm 4 mps 747 mmHg 67%
    16:00 +2°C° 0 mm 3 mps 747 mmHg 69%
    17:00 +2°C° 0 mm 3 mps 748 mmHg 70%
    18:00 +2°C° 0 mm 2 mps 748 mmHg 73%
    19:00 +2°C° 0 mm 2 mps 749 mmHg 76%
    20:00 +2°C° 0 mm 1 mps 749 mmHg 78%
    21:00 +2°C° 0 mm 1 mps 750 mmHg 79%
    22:00 +2°C° 0 mm 1 mps 750 mmHg 80%
    23:00 +2°C° 0 mm 1 mps 750 mmHg 81%

    29 October, Tuesday

    Time Temperature Precipitation Wind Pressure Humidity
    00:00 +1°C° 0 mm 1 mps 751 mmHg 83%
    01:00 +1°C° 0 mm 1 mps 751 mmHg 86%
    02:00 +1°C° 0 mm 1 mps 751 mmHg 88%
    03:00 +1°C° 0 mm 1 mps 751 mmHg 89%
    04:00 0°C° 0 mm 1 mps 752 mmHg 90%
    05:00 0°C° 0 mm 1 mps 752 mmHg 91%
    06:00 +1°C° 0 mm 1 mps 752 mmHg 91%
    07:00 +1°C° 0 mm 1 mps 753 mmHg 91%
    08:00 -1°C° 0 mm 2 mps 753 mmHg 91%
    09:00 +1°C° 0 mm 2 mps 754 mmHg 88%
    10:00 +1°C° 0 mm 2 mps 754 mmHg 85%
    11:00 +1°C° 0 mm 3 mps 754 mmHg 82%
    12:00 +1°C° 0 mm 3 mps 755 mmHg 80%
    13:00 +1°C° 0 mm 3 mps 755 mmHg 78%
    14:00 +1°C° 0 mm 3 mps 755 mmHg 75%
    15:00 +1°C° 0 mm 3 mps 756 mmHg 75%
    16:00 0°C° 0 mm 3 mps 756 mmHg 75%
    17:00 0°C° 0 mm 3 mps 756 mmHg 75%
    18:00 -1°C° 0 mm 3 mps 757 mmHg 75%
    19:00 -1°C° 0 mm 3 mps 757 mmHg 74%
    20:00 -2°C° 0 mm 3 mps 758 mmHg 74%
    21:00 -2°C° 0 mm 3 mps 758 mmHg 74%
    22:00 -2°C° 0 mm 3 mps 759 mmHg 74%
    23:00 -4°C° 0 mm 3 mps 759 mmHg 75%
    Show more